EW0139 Weather Reports


Display with metric or nautical units.
time (UTC)temp
F
wind
direction
speed
MPH
gust
MPH
rain 1hr
in
rain 24hr
in
rain mn
in
humidity
%
barometer
mb
20260904042249 63 34 1.0 3.0 0.00 0.00 0.00 43 1008.3
20260904040749 64 34 0.0 3.0 0.00 0.00 0.00 41 1008.2
20260904035256 66 32 3.0 7.0 0.00 0.00 0.00 40 1008.3
20260904033758 66 34 4.0 6.0 0.00 0.00 0.00 39 1008.4
20260904032243 66 38 2.0 6.0 0.00 0.00 0.00 38 1008.4
20260904030744 67 28 2.0 5.0 0.00 0.00 0.00 38 1008.3
20260904025248 67 18 1.0 2.0 0.00 0.00 0.00 36 1008.2
20260904023752 69 19 0.0 3.0 0.00 0.00 0.00 34 1008.2
20260904022253 72 19 1.0 5.0 0.00 0.00 0.00 31 1008.1
20260904020742 74 9 0.0 2.0 0.00 0.00 0.00 30 1008.1
20260904015243 76 9 1.0 2.0 0.00 0.00 0.00 29 1007.8
20260904013747 78 9 0.0 1.0 0.00 0.00 0.00 28 1007.8
20260904012251 79 9 0.0 3.0 0.00 0.00 0.00 26 1007.7
20260904010752 81 342 2.0 3.0 0.00 0.00 0.00 26 1007.4
20260904005255 83 339 0.0 5.0 0.00 0.00 0.00 24 1007.2
20260904003820 84 223 0.0 2.0 0.00 0.00 0.00 22 1007.2
20260904002321 84 223 0.0 4.0 0.00 0.00 0.00 22 1006.8
20260904000740 84 219 0.0 4.0 0.00 0.00 0.00 22 1006.8
20260903235248 84 239 2.0 4.0 0.00 0.00 0.00 21 1007.9
20260903233748 84 134 1.0 4.0 0.00 0.00 0.00 22 1007.7
20260903232254 83 110 0.0 6.0 0.00 0.00 0.00 22 1007.6
20260903230756 83 122 0.0 8.0 0.00 0.00 0.00 22 1007.8
20260903225258 83 225 4.0 13.0 0.00 0.00 0.00 22 1007.6